This is the latest recevied weather packets stored in our database for station/object KC3DGM. If no packets are shown the sender has not sent any weather packets the latest 10 day(s).
| Time | Temp. | Humidity | Pressure | Rain* | Wind** | Luminosity | Snow |
|---|---|---|---|---|---|---|---|
| 1777727941 | 2.22° C | 90% | 987.6 hPa | 0 mm | - | 37 W/m² | - |
| 1777727638 | 2.22° C | 89% | 987.7 hPa | 0 mm | - | 42 W/m² | - |
| 1777727335 | 2.22° C | 89% | 987.5 hPa | 0 mm | - | 48 W/m² | - |
| 1777727033 | 2.22° C | 88% | 987.5 hPa | 0 mm | - | 46 W/m² | - |
| 1777726729 | 2.22° C | 88% | 987.8 hPa | 0 mm | - | 42 W/m² | - |
| 1777726427 | 2.78° C | 89% | 987.5 hPa | 0 mm | - | 39 W/m² | - |
| 1777726124 | 2.78° C | 89% | 987.6 hPa | 0 mm | - | 30 W/m² | - |
| 1777725820 | 2.22° C | 89% | 987.8 hPa | 0 mm | - | 33 W/m² | - |
| 1777725518 | 2.78° C | 88% | 987.4 hPa | 0 mm | - | 38 W/m² | - |
| 1777725216 | 2.78° C | 88% | 987.4 hPa | 0 mm | - | 39 W/m² | - |
| 1777724913 | 2.78° C | 88% | 987.4 hPa | 0 mm | - | 34 W/m² | - |
| 1777724608 | 2.78° C | 88% | 987.4 hPa | 0 mm | - | 37 W/m² | - |
| 1777724307 | 2.78° C | 88% | 987 hPa | 0 mm | - | 47 W/m² | - |
| 1777724004 | 2.78° C | 87% | 987.4 hPa | 0 mm | - | 65 W/m² | - |
| 1777723701 | 2.78° C | 87% | 987.4 hPa | 0 mm | - | 64 W/m² | - |
| 1777723397 | 2.78° C | 89% | 987.5 hPa | 0 mm | - | 52 W/m² | - |
| 1777723095 | 2.78° C | 88% | 987.3 hPa | 0 mm | - | 39 W/m² | - |
| 1777722792 | 2.78° C | 89% | 987.2 hPa | 0 mm | - | 29 W/m² | - |
| 1777722488 | 2.78° C | 89% | 987.3 hPa | 0 mm | - | 23 W/m² | - |
| 1777722185 | 2.78° C | 89% | 987.5 hPa | 0 mm | - | 21 W/m² | - |
| 1777721882 | 2.22° C | 89% | 987.4 hPa | 0 mm | - | 12 W/m² | - |
| 1777721580 | 2.22° C | 90% | 987.5 hPa | 0 mm | - | 9 W/m² | - |
| 1777721278 | 2.22° C | 93% | 987.1 hPa | 0 mm | - | 12 W/m² | - |
| 1777720975 | 2.22° C | 94% | 987.2 hPa | 0 mm | - | 16 W/m² | - |
| 1777720672 | 2.22° C | 96% | 987.1 hPa | 0 mm | - | 14 W/m² | - |
* Rain latest hour (hover to see other rain measurements)
** Current wind speed in m/s (hover to see current wind gust speed)